Regional Weather Roundup
Issued by NWS

Home | Current Version | Previous Version | Text Only | Print | Product List | Glossary On
Versions: 1 2 3 4 5 6 7 8 9 10 11 12 13 14 15 16 17 18 19 20 21 22 23 24 25 26 27 28 29 30 31 32 33 34 35 36 37 38 39 40 41 42 43 44 45 46 47 48 49 50
000
ASUS43 KMKX 252000
RWRWI

WISCONSIN REGIONAL WEATHER ROUNDUP
NATIONAL WEATHER SERVICE MILWAUKEE/SULLIVAN WI
200 PM CST SAT FEB 25 2017

NOTE: "FAIR" INDICATES FEW OR NO CLOUDS BELOW 12,000 FEET WITH NO
SIGNIFICANT WEATHER AND/OR OBSTRUCTIONS TO VISIBILITY.

WIZ001-002-006>008-014>016-023>028-252100-
NORTHWEST WISCONSIN

CITY           SKY/WX    TMP DP  RH WIND       PRES   REMARKS
SUPERIOR ARPT  SUNNY     27   9  46 W13       29.84F WCI  17
ASHLAND        SUNNY     25   8  48 W18G26    29.81S WCI  11
HAYWARD        CLOUDY    26   4  38 NW8G17    29.81F WCI  18
SIREN          MOSUNNY   29   7  39 W15       29.86F WCI  18
CUMBERLAND     MOSUNNY   28   9  43 NW13G20   29.84F WCI  18
RICE LAKE      SUNNY     27   6  41 W7G17     29.87F WCI  20
CHETEK         SUNNY     26   7  43 NW7       29.86F WCI  18
LADYSMITH      SUNNY     26   5  42 W14       29.83S WCI  14
EAU CLAIRE     NOT AVBL
MENOMONIE      SUNNY     27   7  44 W14       29.90S WCI  15
NEW RICHMOND   SUNNY     29   7  38 W20       29.88F WCI  17
OSCEOLA        MOSUNNY   31  11  43 NW14G20   29.92S WCI  21
$$

WIZ003>005-009-010-017-018-252100-
NORTH CENTRAL WISCONSIN

CITY           SKY/WX    TMP DP  RH WIND       PRES   REMARKS
MANITOWISH WTR LGT SNOW  16   9  74 W13G20    29.73R WCI   2
ARBOR VITAE    FLURRIES  17  10  72 W10G18      N/A  WCI   5
WOODRUFF       FLURRIES  17  10  72 W10G18      N/A  WCI   5
RHINELANDER    CLOUDY    18   8  65 W10G21    29.74R WCI   6
EAGLE RIVER    LGT SNOW  17   8  69 W16G23    29.71R WCI   1
LAND O LAKES   LGT SNOW  18  11  74 W10G21    29.71R WCI   6
PHILLIPS       SUNNY     21   7  54 NW10      29.76S WCI  10
TOMAHAWK       CLOUDY    19   8  62 W12G17    29.77S WCI   6
MEDFORD        SUNNY     19   6  55 W12G18    29.78S WCI   7
MERRILL        NOT AVBL
$$

WIZ029-030-035-036-043>047-252100-
CENTRAL WISCONSIN

CITY           SKY/WX    TMP DP  RH WIND       PRES   REMARKS
WAUSAU         PTSUNNY   18   7  62 NW15      29.79R WCI   4
MOSINEE        MOSUNNY   19   9  63 W16G24    29.81R WCI   5
MARSHFIELD     SUNNY     20   5  52 W14       29.81R WCI   7
STEVENS POINT  CLOUDY    18   7  62 W15G24    29.83R WCI   3
WAUPACA        MOSUNNY   23  10  59 W17G24    29.83R WCI   9
WAUTOMA        CLOUDY    21  11  65 W17G26    29.86R WCI   7
WISC RAPIDS    MOSUNNY   22   8  55 NW12      29.85R WCI  10
CAMP DOUGLAS   NOT AVBL
$$

WIZ011>013-019>022-031-037>040-048>050-252100-
NORTHEAST WISCONSIN

CITY           SKY/WX    TMP DP  RH WIND       PRES   REMARKS
ANTIGO         CLOUDY    18   9  69 W18G25    29.74R WCI   2
SHAWANO        CLOUDY    24  13  61 CALM      29.79R
OCONTO         CLOUDY    24  13  61 W16G26    29.74R WCI  11
STURGEON BAY   CLOUDY    25  16  68 W16G23    29.73R WCI  12
GREEN BAY      CLOUDY    23  15  71 W23G29    29.79R WCI   7
MANITOWOC      PTSUNNY   23  12  63 W21       29.78R WCI   8
APPLETON       PTSUNNY   21  10  63 W20       29.79R WCI   6
CLINTONVILLE   CLOUDY    21  10  63 W15       29.80R WCI   8
OSHKOSH        MIX PCPN  21  11  65 NW17G23   29.81R WCI   7
$$

WIZ032>034-041-042-053>061-252100-
SOUTHWEST WISCONSIN

CITY           SKY/WX    TMP DP  RH WIND       PRES   REMARKS
LA CROSSE      SUNNY     27  10  49 NW13G22   29.94S WCI  16
SPARTA         SUNNY     24   9  53 W13       29.91R WCI  12
VIROQUA        SUNNY     22   9  58 W12       29.89R WCI  10
BOSCOBEL       SUNNY     26   9  48 W14G21    29.95R WCI  14
PRAIRIE DU CHI SUNNY     25  10  53 W14       29.97R WCI  13
PLATTEVILLE    SUNNY     23  14  69 W6        29.92R WCI  16
$$

WIZ056-057-062-063-064-067-068-252100-
SOUTH CENTRAL WISCONSIN

CITY           SKY/WX    TMP DP  RH WIND       PRES   REMARKS
REEDSBURG      SUNNY     23  11  60 W16G22    29.88R WCI   9
BARABOO/DELLS  PTSUNNY   21  11  64 NW10      29.87R WCI  10
LONE ROCK      NOT AVBL
MINERAL POINT  SUNNY     25  18  74 W7        29.89R WCI  17
MADISON        PTSUNNY   23  13  65 NW12G20   29.88R WCI  12
MIDDLETON      CLOUDY    24  16  70 W9        29.88R WCI  14
WATERTOWN      FLURRIES  19  12  74 W12G21    29.86R WCI   6
MONROE         CLOUDY    25  16  68 W17G23    29.88R WCI  11
JANESVILLE     PTSUNNY   27  16  63 NW16G24   29.88R WCI  14
$$

WIZ051-052-058>065-066-070>072-252100-
SOUTHEAST WISCONSIN

CITY           SKY/WX    TMP DP  RH WIND       PRES   REMARKS
MILWAUKEE      FLURRIES  22  10  60 W13G24    29.86R WCI  10
WAUKESHA       CLOUDY    18   9  68 W18G26    29.86R WCI   2
MILWAUKEE/TIMM FLURRIES  19   9  63 W14G25    29.85R WCI   6
RACINE         CLOUDY    21   9  59 W14G24    29.88R WCI   8
KENOSHA        LGT SNOW  22  13  68 W20       29.87R WCI   7
FOND DU LAC    CLOUDY    21  10  62 W16G25    29.82R WCI   7
SHEBOYGAN      LGT SNOW  21  12  68 W18G31    29.80R WCI   6
WEST BEND      FLURRIES  19  14  79 W8        29.81R WCI   9
JUNEAU         CLOUDY    18  12  76 W6        29.85R WCI  10
$$

LSZ147-162-252100-
LAKE SUPERIOR

STATION/POSITION TIME  TEMP    WIND        PRES    WAVE
                       AIR SEA DIR/SP/G            HT/PER
                 (UTC) (F)     (DEG/KT/KT) (MB)    (FT/S)
DEVILS ISLAND    1900   22     270/ 18/ 22 1009.6F
PORT WING        1940   23     260/ 12/ 19 1010.2F
SAXON HARBOR     1940   24     290/ 16/ 23 1009.1F
$$

LMZ867-665-643>646-252100-
LAKE MICHIGAN

STATION/POSITION TIME  TEMP    WIND        PRES    WAVE
                       AIR SEA DIR/SP/G            HT/PER
                 (UTC) (F)     (DEG/KT/KT) (MB)    (FT/S)
CHAMBERS ISLAND  1940   27      CALM  /  2 1005.4R
NORTHPORT PIER   1813   23     290/  1/  2 1004.4R
SISTER BAY       1935   26        CALM       N/A
KEWAUNEE LAKESHO 1930   23     300/ 17/ 24 1006.4R
SHEBOYGAN LAKESH 1900   20     290/ 14/ 17 1009.3R
PORT WASHINGTON  1930   22     290/ 11/ 20 1010.8R
MILWAUKEE LAKESH 1930   20     290/ 15/ 20   N/A
KENOSHA   LAKESH 1900   20     300/ 15/ 22 1011.2
$$

TC  - TEMPERATURE IN CELSIUS
VSB - VISIBILITY IN STATUTE MILES
WCI - WIND CHILL INDEX
HX  - HEAT INDEX





USA.gov is the U.S. government's official web portal to all federal, state and local government web resources and services.